| time (UTC) | temp F | wind direction | speed MPH | gust MPH | rain 1hr in | rain 24hr in | rain mn in | humidity % | barometer mb |
| 20260507074535 | 51 | 172 | 0.0 | 1.0 | 0.00 | 0.01 | 0.00 | 63 | 1023.8 |
| 20260507073039 | 53 | 174 | 0.0 | 2.0 | 0.00 | 0.01 | 0.00 | 63 | 1023.8 |
| 20260507071532 | 51 | 165 | 0.0 | 2.0 | 0.00 | 0.01 | 0.00 | 65 | 1024.0 |
| 20260507070036 | 52 | 181 | 0.0 | 2.0 | 0.00 | 0.01 | 0.00 | 65 | 1024.1 |
| 20260507064534 | 52 | 186 | 0.0 | 2.0 | 0.00 | 0.01 | 0.00 | 63 | 1024.2 |
| 20260507063029 | 52 | 212 | 0.0 | 4.0 | 0.00 | 0.01 | 0.00 | 64 | 1024.3 |
| 20260507061521 | 52 | 164 | 0.0 | 1.0 | 0.00 | 0.01 | 0.00 | 65 | 1024.4 |
| 20260507060021 | 52 | 176 | 0.0 | 1.0 | 0.00 | 0.01 | 0.00 | 66 | 1024.6 |
| 20260507054505 | 52 | 186 | 0.0 | 1.0 | 0.00 | 0.01 | 0.00 | 65 | 1024.6 |
| 20260507053004 | 52 | 187 | 0.0 | 1.0 | 0.00 | 0.01 | 0.00 | 64 | 1024.8 |
| 20260507051506 | 54 | 187 | 0.0 | 1.0 | 0.00 | 0.01 | 0.00 | 62 | 1024.9 |
| 20260507050100 | 53 | 187 | 0.0 | 0.0 | 0.00 | 0.01 | 0.00 | 65 | 1024.8 |
| 20260507044558 | 53 | 187 | 0.0 | 1.0 | 0.00 | 0.01 | 0.00 | 67 | 1025.0 |
| 20260507043053 | 51 | 184 | 0.0 | 1.0 | 0.00 | 0.01 | 0.00 | 75 | 1024.9 |
| 20260507041550 | 51 | 169 | 0.0 | 1.0 | 0.00 | 0.01 | 0.00 | 78 | 1025.0 |
| 20260507040048 | 51 | 175 | 0.0 | 1.0 | 0.00 | 0.01 | 0.01 | 79 | 1025.0 |
| 20260507034535 | 51 | 188 | 0.0 | 2.0 | 0.00 | 0.01 | 0.01 | 79 | 1024.8 |
| 20260507033036 | 0 | 0.0 | 0.0 | 0.00 | 0.01 | 0.01 | 1024.6 | ||
| 20260507031531 | 0 | 0.0 | 0.0 | 0.00 | 0.01 | 0.01 | 1024.5 | ||
| 20260507030027 | 0 | 0.0 | 0.0 | 0.00 | 0.01 | 0.01 | 1024.3 | ||
| 20260507024523 | 0 | 0.0 | 0.0 | 0.00 | 0.01 | 0.01 | 1024.2 | ||
| 20260507023016 | 0 | 0.0 | 0.0 | 0.00 | 0.01 | 0.01 | 1024.1 | ||
| 20260507021511 | 0 | 0.0 | 0.0 | 0.00 | 0.01 | 0.01 | 1024.0 | ||
| 20260507020008 | 0 | 0.0 | 0.0 | 0.00 | 0.01 | 0.01 | 1023.9 | ||
| 20260507014602 | 0 | 0.0 | 0.0 | 0.00 | 0.01 | 0.01 | 1023.9 | ||
| 20260507013047 | 0 | 0.0 | 0.0 | 0.00 | 0.01 | 0.01 | 1023.9 | ||
| 20260507011524 | 0 | 0.0 | 0.0 | 0.00 | 0.01 | 0.01 | 1023.7 | ||
| 20260507010018 | 0 | 0.0 | 0.0 | 0.00 | 0.01 | 0.01 | 1023.7 | ||
| 20260507004529 | 0 | 0.0 | 0.0 | 0.00 | 0.01 | 0.01 | 1023.7 | ||
| 20260507003009 | 0 | 0.0 | 0.0 | 0.00 | 0.01 | 0.01 | 1023.6 | ||
| 20260507001504 | 0 | 0.0 | 0.0 | 0.00 | 0.01 | 0.01 | 1023.5 | ||
| 20260507000002 | 0 | 0.0 | 0.0 | 0.00 | 0.01 | 0.01 | 1023.3 | ||
| 20260506234605 | 0 | 0.0 | 0.0 | 0.00 | 0.01 | 0.01 | 1023.2 | ||
| 20260506233057 | 0 | 0.0 | 0.0 | 0.00 | 0.01 | 0.01 | 1023.1 | ||
| 20260506231556 | 0 | 0.0 | 0.0 | 0.00 | 0.01 | 0.01 | 1023.2 | ||
| 20260506230041 | 0 | 0.0 | 0.0 | 0.00 | 0.01 | 0.01 | 1023.2 | ||
| 20260506224528 | 0 | 0.0 | 0.0 | 0.00 | 0.01 | 0.01 | 1023.3 | ||
| 20260506223037 | 61 | 84 | 2.0 | 8.0 | 0.00 | 0.01 | 0.01 | 73 | 1023.4 |
| 20260506221521 | 60 | 43 | 1.0 | 7.0 | 0.00 | 0.01 | 0.01 | 73 | 1023.7 |
| 20260506220023 | 60 | 58 | 1.0 | 6.0 | 0.00 | 0.01 | 0.01 | 72 | 1024.0 |
| 20260506214519 | 61 | 62 | 3.0 | 8.0 | 0.00 | 0.01 | 0.01 | 68 | 1024.1 |
| 20260506213014 | 0 | 0.0 | 0.0 | 0.00 | 0.01 | 0.01 | 1024.4 | ||
| 20260506211514 | 0 | 0.0 | 0.0 | 0.00 | 0.01 | 0.01 | 1024.4 | ||
| 20260506210101 | 0 | 0.0 | 0.0 | 0.00 | 0.01 | 0.01 | 1024.5 | ||
| 20260506204556 | 0 | 0.0 | 0.0 | 0.00 | 0.01 | 0.01 | 1024.4 | ||
| 20260506203048 | 0 | 0.0 | 0.0 | 0.00 | 0.01 | 0.01 | 1024.4 | ||
| 20260506201554 | 0 | 0.0 | 0.0 | 0.00 | 0.01 | 0.01 | 1024.6 | ||
| 20260506200036 | 0 | 0.0 | 0.0 | 0.00 | 0.01 | 0.01 | 1024.6 | ||
| 20260506194532 | 0 | 0.0 | 0.0 | 0.00 | 0.01 | 0.01 | 1024.7 | ||
| 20260506193028 | 0 | 0.0 | 0.0 | 0.00 | 0.01 | 0.01 | 1024.7 | ||
| 20260506191524 | 0 | 0.0 | 0.0 | 0.00 | 0.01 | 0.01 | 1024.9 | ||
| 20260506190001 | 0 | 0.0 | 0.0 | 0.00 | 0.01 | 0.01 | 1024.9 | ||
| 20260506184608 | 0 | 0.0 | 0.0 | 0.00 | 0.01 | 0.01 | 1024.8 | ||
| 20260506183101 | 0 | 0.0 | 0.0 | 0.00 | 0.01 | 0.01 | 1024.8 | ||
| 20260506181548 | 0 | 0.0 | 0.0 | 0.00 | 0.01 | 0.01 | 1024.8 | ||
| 20260506180048 | 0 | 0.0 | 0.0 | 0.00 | 0.01 | 0.01 | 1024.8 | ||
| 20260506174542 | 0 | 0.0 | 0.0 | 0.00 | 0.01 | 0.01 | 1024.7 | ||
| 20260506173017 | 0 | 0.0 | 0.0 | 0.00 | 0.01 | 0.01 | 1024.7 | ||
| 20260506171518 | 0 | 0.0 | 0.0 | 0.00 | 0.01 | 0.01 | 1024.6 | ||
| 20260506170113 | 0 | 0.0 | 0.0 | 0.00 | 0.01 | 0.01 | 1024.6 | ||
| 20260506164553 | 53 | 116 | 0.0 | 2.0 | 0.00 | 0.01 | 0.01 | 94 | 1024.5 |
| 20260506163101 | 51 | 168 | 0.0 | 0.0 | 0.00 | 0.01 | 0.01 | 96 | 1024.7 |
| 20260506161546 | 50 | 168 | 0.0 | 0.0 | 0.00 | 0.01 | 0.01 | 97 | 1024.7 |
| 20260506160042 | 47 | 119 | 0.0 | 5.0 | 0.00 | 0.02 | 0.01 | 96 | 1024.6 |
| 20260506154536 | 46 | 154 | 0.0 | 1.0 | 0.00 | 0.02 | 0.01 | 97 | 1024.6 |
| 20260506153032 | 45 | 164 | 0.0 | 1.0 | 0.00 | 0.02 | 0.01 | 97 | 1024.7 |
| 20260506151533 | 43 | 163 | 0.0 | 2.0 | 0.00 | 0.02 | 0.01 | 97 | 1024.7 |
| 20260506150011 | 42 | 181 | 0.0 | 2.0 | 0.00 | 0.02 | 0.01 | 97 | 1024.6 |
| 20260506144508 | 42 | 169 | 0.0 | 3.0 | 0.00 | 0.02 | 0.01 | 97 | 1024.6 |
| 20260506143010 | 41 | 177 | 1.0 | 3.0 | 0.00 | 0.02 | 0.01 | 96 | 1024.6 |
| 20260506141546 | 39 | 183 | 1.0 | 2.0 | 0.00 | 0.02 | 0.01 | 98 | 1024.5 |
| 20260506140027 | 38 | 203 | 1.0 | 4.0 | 0.00 | 0.05 | 0.01 | 98 | 1024.4 |
| 20260506134525 | 38 | 185 | 0.0 | 3.0 | 0.00 | 0.05 | 0.01 | 99 | 1024.4 |
| 20260506133013 | 38 | 170 | 1.0 | 2.0 | 0.00 | 0.05 | 0.01 | 99 | 1024.1 |
| 20260506131512 | 37 | 184 | 0.0 | 2.0 | 0.00 | 0.05 | 0.01 | 99 | 1024.0 |
| 20260506130014 | 37 | 182 | 1.0 | 3.0 | 0.00 | 0.06 | 0.01 | 99 | 1023.8 |
| 20260506124509 | 37 | 183 | 0.0 | 3.0 | 0.00 | 0.06 | 0.01 | 99 | 1023.6 |
| 20260506123007 | 37 | 189 | 1.0 | 2.0 | 0.00 | 0.06 | 0.01 | 99 | 1023.4 |
| 20260506121506 | 37 | 162 | 0.0 | 3.0 | 0.00 | 0.06 | 0.01 | 99 | 1023.3 |
| 20260506120004 | 37 | 169 | 1.0 | 2.0 | 0.00 | 0.11 | 0.01 | 99 | 1023.3 |
| 20260506114505 | 37 | 182 | 1.0 | 3.0 | 0.00 | 0.11 | 0.01 | 99 | 1023.2 |
| 20260506113056 | 37 | 184 | 1.0 | 2.0 | 0.01 | 0.11 | 0.01 | 99 | 1023.2 |
| 20260506111555 | 37 | 184 | 1.0 | 3.0 | 0.01 | 0.11 | 0.01 | 99 | 1023.1 |
| 20260506110055 | 36 | 184 | 1.0 | 2.0 | 0.01 | 0.16 | 0.01 | 98 | 1023.1 |
| 20260506104552 | 36 | 180 | 1.0 | 2.0 | 0.01 | 0.16 | 0.01 | 98 | 1023.0 |
| 20260506103054 | 36 | 181 | 0.0 | 2.0 | 0.00 | 0.15 | 0.00 | 98 | 1022.8 |
| 20260506101538 | 36 | 182 | 1.0 | 2.0 | 0.00 | 0.15 | 0.00 | 98 | 1022.8 |
| 20260506100033 | 36 | 184 | 1.0 | 2.0 | 0.00 | 0.17 | 0.00 | 98 | 1022.7 |
| 20260506094533 | 36 | 169 | 0.0 | 2.0 | 0.00 | 0.17 | 0.00 | 98 | 1022.7 |
| 20260506093019 | 36 | 179 | 1.0 | 3.0 | 0.00 | 0.17 | 0.00 | 98 | 1022.6 |
| 20260506091518 | 36 | 184 | 1.0 | 3.0 | 0.00 | 0.17 | 0.00 | 98 | 1022.6 |
| 20260506090019 | 36 | 180 | 1.0 | 3.0 | 0.00 | 0.17 | 0.00 | 98 | 1022.6 |
| 20260506084513 | 36 | 185 | 1.0 | 2.0 | 0.00 | 0.17 | 0.00 | 98 | 1022.8 |
| 20260506083013 | 36 | 179 | 1.0 | 3.0 | 0.00 | 0.17 | 0.00 | 98 | 1022.8 |
| 20260506081510 | 36 | 165 | 0.0 | 3.0 | 0.00 | 0.17 | 0.00 | 98 | 1022.7 |